IZ1TJT Weather Reports


time (UTC)temp
F
wind
direction
speed
knots
gust
knots
rain 1hr
in
rain 24hr
in
rain mn
in
humidity
%
barometer
mb
20260507101531 62 84 1.7 6.1 0.00 0.05 0.05 83 1015.6
20260507100029 63 120 7.0 12.2 0.00 0.05 0.05 83 1015.5
20260507094533 65 68 7.0 14.8 0.00 0.05 0.05 83 1015.4
20260507093033 64 107 7.8 13.0 0.00 0.05 0.05 81 1015.4
20260507091525 63 110 4.3 10.4 0.00 0.05 0.05 82 1015.4
20260507090023 63 108 6.1 12.2 0.01 0.05 0.05 81 1015.4
20260507084525 63 115 0.9 8.7 0.01 0.05 0.05 84 1015.2
20260507083019 62 120 4.3 12.2 0.01 0.05 0.05 86 1015.0
20260507081530 61 124 4.3 13.0 0.01 0.05 0.05 87 1014.9
20260507080015 61 146 6.1 13.0 0.02 0.04 0.04 87 1014.7
20260507074513 61 181 5.2 11.3 0.04 0.04 0.04 88 1014.6
20260507073013 61 124 4.3 9.6 0.04 0.04 0.04 87 1014.3
20260507071508 60 165 5.2 11.3 0.04 0.04 0.04 88 1014.2
20260507070012 61 116 3.5 9.6 0.02 0.21 0.02 85 1014.1
20260507064504 63 87 4.3 9.6 0.00 0.19 0.00 79 1014.0
20260507063001 61 49 3.5 7.0 0.00 0.19 0.00 83 1014.0
20260507061701 61 110 1.7 5.2 0.00 0.19 0.00 84 1013.9
20260507060104 61 51 2.6 9.6 0.00 0.19 0.00 83 1013.9
20260507054558 61 27 3.5 7.8 0.00 0.19 0.00 84 1013.8
20260507053057 61 82 0.9 4.3 0.00 0.19 0.00 84 1013.7
20260507051555 61 32 1.7 7.8 0.00 0.19 0.00 84 1013.7
20260507050051 61 73 2.6 5.2 0.00 0.19 0.00 86 1013.4
20260507044604 60 34 1.7 6.1 0.00 0.19 0.00 87 1013.3
20260507043100 60 71 1.7 4.3 0.00 0.19 0.00 87 1013.2
20260507041543 60 83 0.0 4.3 0.00 0.19 0.00 87 1013.2
20260507040043 60 71 2.6 9.6 0.00 0.19 0.00 87 1013.1
20260507034542 60 60 0.9 4.3 0.00 0.19 0.00 87 1013.1
20260507033042 60 40 3.5 7.8 0.00 0.19 0.00 87 1013.1
20260507031545 60 113 0.9 5.2 0.00 0.19 0.00 88 1013.0
20260507030039 60 86 1.7 4.3 0.00 0.22 0.00 88 1013.1
20260507024542 60 69 1.7 5.2 0.00 0.22 0.00 87 1013.0
20260507023037 60 110 0.9 5.2 0.00 0.22 0.00 87 1013.0
20260507021538 60 56 0.9 2.6 0.00 0.22 0.00 88 1013.1
20260507020047 61 123 1.7 6.1 0.00 0.68 0.00 87 1013.0
20260507014535 61 130 0.0 3.5 0.00 0.68 0.00 87 1012.9
20260507013032 61 80 0.9 6.1 0.00 0.68 0.00 86 1012.8
20260507011541 61 107 1.7 6.1 0.00 0.68 0.00 86 1013.0
20260507010034 61 81 0.0 4.3 0.00 1.73 0.00 86 1013.1
20260507004531 61 186 1.7 6.1 0.00 1.73 0.00 86 1013.2
20260507003029 61 136 2.6 7.0 0.00 1.73 0.00 86 1013.2
20260507001600 61 91 3.5 7.8 0.00 1.73 0.00 86 1013.0
20260507000025 61 149 3.5 7.8 0.00 1.73 0.00 85 1013.0
20260506234524 61 129 2.6 8.7 0.00 1.73 0.00 84 1013.1
20260506233023 61 134 3.5 7.0 0.00 1.73 0.00 84 1013.2
20260506231521 62 174 1.7 7.8 0.00 1.73 0.00 83 1013.1
20260506230019 62 120 2.6 8.7 0.00 1.73 0.00 83 1013.0
20260506224518 62 133 4.3 9.6 0.00 1.73 0.00 83 1013.1
20260506223022 62 131 5.2 10.4 0.00 1.73 0.00 82 1013.1
20260506221515 62 212 2.6 8.7 0.00 1.73 0.00 82 1013.0
20260506220013 62 116 2.6 7.0 0.00 1.73 1.73 82 1013.1
20260506214512 62 134 3.5 10.4 0.00 1.73 1.73 83 1013.2
20260506213011 62 82 5.2 8.7 0.00 1.73 1.73 83 1013.2
20260506211510 62 125 4.3 10.4 0.00 1.73 1.73 83 1013.2
20260506210012 62 124 3.5 9.6 0.00 1.73 1.73 84 1013.2
20260506204509 62 159 2.6 9.6 0.00 1.73 1.73 84 1013.1
20260506203010 62 101 5.2 9.6 0.00 1.73 1.73 83 1012.9
20260506201511 62 153 3.5 11.3 0.00 1.73 1.73 84 1012.9
20260506200007 62 155 2.6 12.2 0.00 1.73 1.73 84 1012.7
20260506194507 62 98 3.5 7.0 0.00 1.73 1.73 84 1012.4
20260506193009 62 146 4.3 9.6 0.00 1.73 1.73 84 1012.2
20260506191510 62 127 4.3 11.3 0.00 1.73 1.73 84 1012.1
20260506190005 62 199 4.3 9.6 0.00 1.73 1.73 84 1012.0
20260506184505 62 112 2.6 8.7 0.00 1.73 1.73 83 1011.7
20260506183004 62 117 0.9 7.8 0.00 1.73 1.73 85 1011.6
20260506181501 62 138 5.2 12.2 0.00 1.73 1.73 85 1011.3
20260506180002 62 122 4.3 11.3 0.00 1.73 1.73 87 1011.2
20260506174502 62 122 2.6 8.7 0.00 1.73 1.73 87 1011.1
20260506173110 62 115 6.1 12.2 0.00 1.73 1.73 86 1011.0
20260506171600 62 105 4.3 12.2 0.00 1.73 1.73 87 1011.0
20260506171501 62 98 3.5 12.2 0.00 1.73 1.73 87 1011.0
20260506170109 62 10 4.3 11.3 0.00 1.73 1.73 86 1010.9
20260506164625 62 110 6.1 13.0 0.00 1.73 1.73 85 1011.0
20260506163108 63 120 7.0 12.2 0.00 1.73 1.73 83 1011.0
20260506161557 64 157 2.6 11.3 0.00 1.73 1.73 83 1010.9
20260506160113 64 148 6.1 13.9 0.00 1.73 1.73 81 1010.9
20260506154558 63 140 4.3 12.2 0.00 1.73 1.73 84 1010.8
20260506153055 64 176 4.3 11.3 0.00 1.73 1.73 84 1010.7
20260506151556 63 150 6.1 10.4 0.00 1.73 1.73 85 1010.8
20260506144553 65 233 2.6 8.7 0.00 1.73 1.73 82 1010.8
20260506143053 66 177 2.6 9.6 0.00 1.73 1.73 79 1010.7
20260506141551 66 193 6.1 11.3 0.00 1.73 1.73 78 1010.7
20260506140050 67 184 3.5 7.8 0.00 1.73 1.73 79 1010.8
20260506134551 66 283 4.3 12.2 0.00 1.73 1.73 80 1010.9
20260506133104 66 117 0.0 6.1 0.00 1.73 1.73 83 1011.0
20260506131555 66 287 1.7 7.0 0.00 1.73 1.73 80 1011.0
20260506130045 66 276 2.6 9.6 0.00 1.73 1.73 83 1010.9
20260506124544 65 293 3.5 8.7 0.00 1.73 1.73 83 1011.0
20260506123043 65 217 3.5 8.7 0.00 1.73 1.73 83 1010.8
20260506121548 65 266 4.3 10.4 0.00 1.73 1.73 85 1010.7
20260506120056 64 277 3.5 10.4 0.00 1.73 1.73 87 1010.6
20260506114540 64 276 3.5 9.6 0.00 1.73 1.73 88 1010.5
20260506113039 64 246 2.6 9.6 0.00 1.73 1.73 89 1010.5
20260506111545 64 272 3.5 8.7 0.00 1.73 1.73 89 1010.5
20260506110038 64 267 1.7 7.0 0.00 1.73 1.73 90 1010.5
20260506104547 63 121 0.9 7.8 0.00 1.73 1.73 90 1010.5
20260506103044 64 72 1.7 7.8 0.00 1.73 1.73 89 1010.6